Location: Unspecified
(0.0000°N, 0.0000°E)
Time: 14:27:28
(UTC+02:00)

Cosmos 1833 Rocket - Visible Passes

Search period start: 02 July 2015 00:00
Search period end: 12 July 2015 00:00
Orbit: 831 x 841 km, 71.0° (Epoch: 02 July)

Date Brightness Start Highest point End Pass type
(mag) Time Alt. Az. Time Alt. Az. Time Alt. Az.
02 Jul 2.5 21:30:42 10° S 21:36:17 76° ESE 21:41:54 10° NNE visible
03 Jul 2.6 21:14:06 10° S 21:19:40 68° ESE 21:25:14 10° NNE visible
04 Jul 2.7 20:57:31 10° S 21:03:02 60° ESE 21:08:33 10° NNE visible
05 Jul 2.8 20:40:57 10° S 20:46:23 54° ESE 20:51:51 10° NNE visible
06 Jul 2.9 20:24:24 10° S 20:29:45 48° ESE 20:35:08 10° NNE visible
06 Jul 5.9 22:12:05 10° W 22:13:41 11° WNW 22:14:46 10° WNW visible
07 Jul 6.3 07:27:55 10° ENE 07:29:20 11° ENE 07:31:16 10° E visible
07 Jul 5.8 21:54:31 10° W 21:57:01 12° WNW 21:59:03 10° NW visible
08 Jul 5.8 21:37:17 10° WSW 21:40:21 14° WNW 21:43:01 10° NW visible
09 Jul 5.7 21:20:11 10° WSW 21:23:41 16° WNW 21:26:51 10° NW visible
10 Jul 5.7 21:03:10 10° WSW 21:07:01 18° WNW 21:10:35 10° NNW visible
11 Jul 5.6 20:46:13 10° WSW 20:50:22 20° WNW 20:54:17 10° NNW visible
